WetterOnline ( http://www.wetteronline.de )

Wetter aktuell Schmölln

Aktuelles Wetter: Leipzig-Holzhausen (138m)

6-stündlich | Neueste Meldungen
Ortszeit Temperatur Wetter
Di, 21.08. 14:00 23.3° C bedeckt
Di, 21.08. 8:00 18.5° C bedeckt
Di, 21.08. 2:00 21.2° C bedeckt
Mo, 20.08. 20:00 23.6° C bedeckt
Mo, 20.08. 14:00 25.2° C bewölkt
Mo, 20.08. 8:00 19.6° C bedeckt
Mo, 20.08. 2:00 19.5° C wolkig
So, 19.08. 20:00 28.5° C wolkenlos
Ortszeit Temperatur Wetter
Di, 21.08. 19:30 23.7° C leicht bewölkt
Di, 21.08. 19:20 23.7° C leicht bewölkt
Di, 21.08. 19:10 23.8° C bedeckt
Di, 21.08. 19:00 24.1° C wolkig
Di, 21.08. 18:50 24.1° C bedeckt
Di, 21.08. 18:40 24.2° C leicht bewölkt
Di, 21.08. 18:30 24.4° C bedeckt
Di, 21.08. 18:00 24.9° C wolkig
Di, 21.08. 17:30 24.3° C wolkig
Di, 21.08. 17:00 23.8° C wolkig
Di, 21.08. 16:30 24.8° C bedeckt
Ortszeit Relative Feuchte Sichtweite
Di, 21.08. 14:00 47% 50 km
Di, 21.08. 8:00 80% 65 km
Di, 21.08. 2:00 69% 35 km
Mo, 20.08. 20:00 53% 70 km
Mo, 20.08. 14:00 48% 45 km
Mo, 20.08. 8:00 59% 35 km
Mo, 20.08. 2:00 54% 45 km
So, 19.08. 20:00 33% 40 km
Ortszeit Relative Feuchte Sichtweite
Di, 21.08. 19:30 45% 70 km
Di, 21.08. 19:20 45% -
Di, 21.08. 19:10 44% -
Di, 21.08. 19:00 44% 65 km
Di, 21.08. 18:50 44% -
Di, 21.08. 18:40 44% -
Di, 21.08. 18:30 43% 60 km
Di, 21.08. 18:00 42% 35 km
Di, 21.08. 17:30 44% 50 km
Di, 21.08. 17:00 46% 65 km
Di, 21.08. 16:30 43% 35 km
Ortszeit Niederschlagsmenge Niederschlagsart
Di, 21.08. 14:00 0.1 l/m2 in 6 Std. Sprühregen
Di, 21.08. 8:00 0.2 l/m2 in 12 Std. Regen
Di, 21.08. 2:00 0.0 l/m2 in 6 Std. -
Mo, 20.08. 20:00 0.0 l/m2 in 12 Std. -
Mo, 20.08. 14:00 0.0 l/m2 in 6 Std. -
Mo, 20.08. 8:00 0.0 l/m2 in 12 Std. -
Mo, 20.08. 2:00 0.0 l/m2 in 6 Std. -
So, 19.08. 20:00 0.0 l/m2 in 12 Std. -
Ortszeit Niederschlagsmenge Niederschlagsart
Di, 21.08. 19:30 0.0 l/m2 in 1 Std. -
Di, 21.08. 19:20 keine Meldung -
Di, 21.08. 19:10 keine Meldung -
Di, 21.08. 19:00 0.0 l/m2 in 1 Std. -
Di, 21.08. 18:50 keine Meldung -
Di, 21.08. 18:40 keine Meldung -
Di, 21.08. 18:30 0.0 l/m2 in 1 Std. -
Di, 21.08. 18:00 0.0 l/m2 in 1 Std. -
Di, 21.08. 17:30 0.0 l/m2 in 1 Std. -
Di, 21.08. 17:00 0.0 l/m2 in 1 Std. -
Di, 21.08. 16:30 0.0 l/m2 in 1 Std. -
Ortszeit Stärke Spitze Richtung
km/h Bft. km/h Grad Sektor
Di, 21.08. 14:00 4 1 14 160° S
Di, 21.08. 8:00 7 2 14 10° N
Di, 21.08. 2:00 6 1 20 340° N
Mo, 20.08. 20:00 6 1 26 300° NW
Mo, 20.08. 14:00 13 3 31 250° W
Mo, 20.08. 8:00 4 1 11 260° W
Mo, 20.08. 2:00 4 1 14 240° SW
So, 19.08. 20:00 4 1 29 290° W
Ortszeit Stärke Spitze Richtung
km/h Bft. km/h Grad Sektor
Di, 21.08. 19:30 7 2 14 340° N
Di, 21.08. 19:20 7 2 - 340° N
Di, 21.08. 19:10 7 2 - 360° N
Di, 21.08. 19:00 7 2 18 350° N
Di, 21.08. 18:50 7 2 - 350° N
Di, 21.08. 18:40 7 2 - 330° NW
Di, 21.08. 18:30 7 2 18 360° N
Di, 21.08. 18:00 7 2 18 20° N
Di, 21.08. 17:30 7 2 11 350° N
Di, 21.08. 17:00 7 2 14 330° NW
Di, 21.08. 16:30 7 2 14 330° NW
Ortszeit Untergrenze Bedeckung Gattung
total tief tief mittel hoch
Di, 21.08. 14:00 1320 m 8/8 8/8 - - -
Di, 21.08. 8:00 1350 m 8/8 8/8 - - -
Di, 21.08. 2:00 1350 m 8/8 8/8 - - -
Mo, 20.08. 20:00 1800 m 8/8 8/8 - - -
Mo, 20.08. 14:00 1500 m 8/8 7/8 - - -
Mo, 20.08. 8:00 - 8/8 - - - -
Mo, 20.08. 2:00 3600 m 8/8 2/8 - - -
So, 19.08. 20:00 - 0/8 0/8 - - -
Ortszeit Bedeckungsgrad in Achtel und Wolkenuntergrenze
Di, 21.08. 19:30 3(3300m)
Di, 21.08. 19:20 3(3300m)
Di, 21.08. 19:10 9 9 9
Di, 21.08. 19:00 9 9 9
Di, 21.08. 18:50 9 9 9
Di, 21.08. 18:40 1(1500m) 3(2400m) 5(3300m)
Di, 21.08. 18:30 9 9 9
Di, 21.08. 18:00 5(1500m) 6(2400m)
Di, 21.08. 17:30 2(2400m) 9 9
Di, 21.08. 17:00 3(1500m) 5(2400m) 9
Di, 21.08. 16:30 3(1500m) 8(2400m)
Ortszeit Luftdruck NN (hPa) Tendenz (hPa in 3 Std.)
Di, 21.08. 14:00 1021 - 0,7
Di, 21.08. 8:00 1021 + 1,4
Di, 21.08. 2:00 1020 + 0,9
Mo, 20.08. 20:00 1018 + 0,1
Mo, 20.08. 14:00 1018 0,0
Mo, 20.08. 8:00 1017 + 0,6
Mo, 20.08. 2:00 1017 + 0,3
So, 19.08. 20:00 1016 - 1,3
Ortszeit Luftdruck NN (hPa) Tendenz (hPa in 3 Std.)
Di, 21.08. 19:30 1020 - 0,7
Di, 21.08. 19:20 1020 keine Meldung
Di, 21.08. 19:10 1020 keine Meldung
Di, 21.08. 19:00 1020 - 0,6
Di, 21.08. 18:50 1020 keine Meldung
Di, 21.08. 18:40 1020 keine Meldung
Di, 21.08. 18:30 1020 - 0,7
Di, 21.08. 18:00 1020 - 0,9
Di, 21.08. 17:30 1020 - 0,8
Di, 21.08. 17:00 1020 - 0,9
Di, 21.08. 16:30 1020 - 1,0
Ortszeit Schneehöhe (cm)
Di, 21.08. 14:00 -
Di, 21.08. 8:00 -
Di, 21.08. 2:00 -
Mo, 20.08. 20:00 -
Mo, 20.08. 14:00 -
Mo, 20.08. 8:00 -
Mo, 20.08. 2:00 -
So, 19.08. 20:00 -
Ortszeit Schneehöhe (cm)
Di, 21.08. 19:30 -
Di, 21.08. 19:20 -
Di, 21.08. 19:10 -
Di, 21.08. 19:00 -
Di, 21.08. 18:50 -
Di, 21.08. 18:40 -
Di, 21.08. 18:30 -
Di, 21.08. 18:00 -
Di, 21.08. 17:30 -
Di, 21.08. 17:00 -
Di, 21.08. 16:30 -
Link zu dieser Seite / Seite empfehlen

Das Wetter in ...